Lexington Weather

Lexington, Massachusetts, USA

39°F
1/28/2023 9:53pm 
  • Lexington Conditions: Clear
  • Temperature: 38.7°F / 3.7°CColder 0.1°F than last hour.
  • Dew Point: 28.2°FIncreased 1.2°Fsince last hour.
  • Relative Humidity: 66%Increased 4.0% since last hour.
  • Wind: Calm, 10-min avg: Calm, gust: None
  • Barometer: 30.25 in Steady
  • Visibility: 10 miles
  • Rain Today: 0.00 in
  •   

Regional Weather Roundup
for Boston, MA

        
000
ASUS41 KBOX 231910
RWRBOX

REGIONAL WEATHER ROUNDUP
NATIONAL WEATHER SERVICE BOSTON/NORTON MA
200 PM EST MON JAN 23 2023

NOTE:  "FAIR" INDICATES FEW OR NO CLOUDS BELOW 12,000 FEET WITH NO 
SIGNIFICANT WEATHER AND/OR OBSTRUCTIONS TO VISIBILITY.

MAZALL-232000-
EASTERN MASSACHUSETTS
  
CITY           SKY/WX    TMP DP  RH WIND       PRES   REMARKS
BOSTON         SNOW      33  31  92 NW10      29.45R VSB 1/2 WCI  25  
BEVERLY        LGT SNOW  32  30  92 NW9       29.42R VSB 1   WCI  24  
LAWRENCE       LGT SNOW  32  29  88 N13G20    29.45S VSB 3/4 WCI  22  
BEDFORD        SNOW      34  31  88 NW10      29.44R VSB 1/2 WCI  26  
NORWOOD        LGT SNOW  34  31  88 NW8       29.45R VSB 3/4 WCI  27  
MARSHFIELD     LGT RAIN  36  34  93 NW14G24   29.40R VSB 1   WCI  27  
PLYMOUTH       MIX PCPN  36  34  92 NW12      29.40R FOG     WCI  28  
TAUNTON          N/A    N/A N/A N/A MISG      29.43R                  
NEW BEDFORD    LGT SNOW  36  36 100 NW8       29.42R FOG     WCI  30  
$$

MAZALL-232000-
CAPE COD AND THE ISLANDS
  
CITY           SKY/WX    TMP DP  RH WIND       PRES   REMARKS
FALMOUTH       NOT AVBL                                               
HYANNIS        LGT SNOW  38  38 100 N14G20    29.33S FOG     WCI  30  
CHATHAM        RAIN      44  41  89 NE7       29.34S FOG              
PROVINCETOWN   LGT RAIN  38  37  97 N17G26    29.34F WCI  28          
NANTUCKET      CLOUDY    44  43  96 N16       29.34F FOG              
MARTHAS VNYRD  LGT RAIN  40  39  97 N16       29.38R FOG     WCI  31  
$$
 
MAZALL-232000-
CENTRAL AND WESTERN MASSACHUSETTS
  
CITY           SKY/WX    TMP DP  RH WIND       PRES   REMARKS
WORCESTER      SNOW      33  31  92 NW9       29.42R VSB 1/2 WCI  25  
FITCHBURG      SNOW      33  30  88 NW6       29.47R VSB 1/2 WCI  28  
ORANGE         SNOW      32  29  88 NW9       29.50R VSB 1/2 WCI  24  
SPRINGFIELD    LGT SNOW  32  32  99 N13       29.47R VSB 5/8 WCI  23  
WESTFIELD      LGT SNOW  32  32 100 N6        29.49S VSB 1   WCI  26  
NORTH ADAMS    LGT SNOW  31  28  89 W12       29.55R VSB 1   WCI  22  
PITTSFIELD     LGT SNOW  30  26  85 NW15G24   29.51R VSB 3/4 WCI  19  
$$
 
RIZALL-232000-
RHODE ISLAND
  
CITY           SKY/WX    TMP DP  RH WIND       PRES   REMARKS
PROVIDENCE     LGT SNOW  32  32 100 NW7       29.45R VSB 3/4 WCI  26  
NEWPORT        LGT SNOW  33  32  96 NW12      29.43R WCI  24          
BLOCK ISLAND   LGT RAIN  36  35  96 NW9       29.45R FOG     WCI  29  
SMITHFIELD     SNOW      32  32 100 N7        29.44R VSB 1/2 WCI  26  
WESTERLY       LGT SNOW  34  33  96 NW3       29.45R FOG              
$$
 
CTZALL-232000-
CONNECTICUT
  
CITY           SKY/WX    TMP DP  RH WIND       PRES   REMARKS
BRADLEY INTL   LGT SNOW  33  32  96 N7        29.49R VSB 3/4 WCI  27  
HARTFORD       LGT SNOW  34  32  92 N5        29.50R VSB 3/4 WCI  30  
BRIDGEPORT     LGT RAIN  37  34  89 NW18G25   29.52R WCI  27          
DANBURY        LGT SNOW  35  30  82 NW9G20    29.54R WCI  28          
GROTON         CLOUDY    39  35  86 N8        29.45S FOG              
NEW HAVEN      LGT RAIN  39  36  89 NW8       29.50R                  
CHESTER        LGT SNOW  34  34 100 NW13G23   29.47R VSB 1   WCI  25  
MERIDEN        LGT SNOW  34  31  88 NW5       29.50R FOG     WCI  30  
WILLIMANTIC    LGT SNOW  34  33  96 NW3       29.47R FOG              
OXFORD         LGT SNOW  32  32 100 VRB7G16   29.49R VSB 3/4 WCI  26  
$$

MEZ002-015-021-024-NHZ003-005-008-011-012-014-VTZ005-008-232000-
NORTHERN NEW ENGLAND
  
CITY           SKY/WX    TMP DP  RH WIND       PRES   REMARKS
PORTLAND ME    CLOUDY    30  27  88 N17       29.43F WCI  18          
BANGOR ME      SNOW      29  26  89 N16       29.46F VSB 1/2 WCI  17  
CONCORD NH     LGT SNOW  32  29  88 N16G23    29.47R VSB 3/4 WCI  21  
MANCHESTER NH  LGT SNOW  34  31  88 N8        29.45S VSB 3/4 WCI  27  
NASHUA NH      LGT SNOW  34  34 100 NW8       29.47S VSB 1   WCI  27  
PORTSMOUTH NH  LGT SNOW  31  28  89 NW9       29.43S VSB 1   WCI  23  
JAFFREY NH     SNOW      33  29  85 VRB3      29.45R VSB 1/2          
KEENE NH       LGT SNOW  32  30  92 N10G16    29.51R VSB 3/4 WCI  24  
BURLINGTON VT  CLOUDY    30  25  81 N20G25    29.64R WCI  17          
MT. WASHINGTON SNOW      19  19 100 N31         N/A  VSB 0   WCI   0  
$$

NYZ052-076-232000-
EASTERN NEW YORK
  
CITY           SKY/WX    TMP DP  RH WIND       PRES   REMARKS
ALBANY         LGT SNOW  34  31  88 NW10      29.60R FOG     WCI  26  
NEW YORK CITY  LGT RAIN  37  32  82 NW20      29.56R HAZE    WCI  27  
$$
 
ANZALL-232000-
MARINE OBSERVATIONS
  
STATION/POSITION TIME  TEMP    WIND        PRES    VSBY  WAVE
                       AIR SEA DIR/SP/G                  HT/PER
                 (UTC) (F)     (DEG/KT/KT) (MB)    (MI)  (FT/S)
BOSTON BUOY      1840      42               995.5F
BUZZARDS BAY     1800   40      10/ 12/ 14  995.4R
NANTUCKET SOUND  1850   42 42  350/ 16/ 21  993.4F         2/ 3
MASS BAY-STELLWA 1704   36 42  360/ 23/ 29  994.8F  1 7/8 10/ 8
ISLE OF SHOALS   1800   32      10/ 28/ 32  995.0F
S OF BLOCK IS    1856      44                N/A          12/12
$$

......................KEY.........................
  SKY/WX - SKY CONDITION/PRESENT WEATHER
  TMP    - TEMPERATURE IN FAHRENHEIT
  DWPT   - DEWPOINT IN FAHRENHEIT
  RH     - RELATIVE HUMIDITY IN PERCENT
  WIND   - DIRECTION AND SPEED IN MPH
  PRES   - MEAN SEA LEVEL PRESSURE IN INCHES OF HG
  WCI    - WIND CHILL INDEX
  VSB    - VISIBILITY IN MILES
  HX     - HEAT INDEX
  TC     - TEMPERATURE IN CELSIUS
  VRB    - VARIABLE WIND DIRECTION
  N/A    - NOT AVAILABLE
  
      

Other recent Regional Weather Roundups

Sat Jan 28, 9:10pm EST

Sat Jan 28, 8:10pm EST

Sat Jan 28, 7:10pm EST

Sat Jan 28, 6:10pm EST

Sat Jan 28, 5:10pm EST

Sat Jan 28, 4:10pm EST

Sat Jan 28, 3:10pm EST

Sat Jan 28, 2:10pm EST

Sat Jan 28, 1:10pm EST

Sat Jan 28, 12:10pm EST

Sat Jan 28, 11:10am EST

Sat Jan 28, 10:10am EST

Sat Jan 28, 9:10am EST

Sat Jan 28, 8:10am EST

Sat Jan 28, 7:10am EST

Sat Jan 28, 6:10am EST

Sat Jan 28, 5:10am EST

Sat Jan 28, 4:10am EST

Sat Jan 28, 3:10am EST

Sat Jan 28, 2:10am EST

Sat Jan 28, 1:10am EST

Sat Jan 28, 12:10am EST

Fri Jan 27, 11:10pm EST

Fri Jan 27, 10:10pm EST

Fri Jan 27, 9:10pm EST

Fri Jan 27, 8:10pm EST

Fri Jan 27, 7:10pm EST

Fri Jan 27, 6:10pm EST

Fri Jan 27, 5:10pm EST

Fri Jan 27, 4:10pm EST

Fri Jan 27, 3:10pm EST

Fri Jan 27, 2:10pm EST

Fri Jan 27, 1:10pm EST

Fri Jan 27, 12:10pm EST

Fri Jan 27, 11:10am EST

Fri Jan 27, 10:10am EST

Fri Jan 27, 9:10am EST

Fri Jan 27, 8:10am EST

Fri Jan 27, 7:10am EST

Fri Jan 27, 6:10am EST

Fri Jan 27, 5:10am EST

Fri Jan 27, 4:10am EST

Fri Jan 27, 3:10am EST

Fri Jan 27, 2:10am EST

Fri Jan 27, 1:10am EST

Fri Jan 27, 12:10am EST

Thu Jan 26, 11:10pm EST

Thu Jan 26, 10:10pm EST

Thu Jan 26, 9:10pm EST

Thu Jan 26, 8:10pm EST

Thu Jan 26, 7:10pm EST

Thu Jan 26, 6:10pm EST

Thu Jan 26, 5:10pm EST

Thu Jan 26, 4:10pm EST

Thu Jan 26, 3:10pm EST

Thu Jan 26, 2:10pm EST

Thu Jan 26, 1:10pm EST

Thu Jan 26, 12:10pm EST

Thu Jan 26, 11:10am EST

Thu Jan 26, 10:10am EST

Thu Jan 26, 9:10am EST

Thu Jan 26, 8:10am EST

Thu Jan 26, 7:10am EST

Thu Jan 26, 6:10am EST

Thu Jan 26, 5:10am EST

Thu Jan 26, 4:10am EST

Thu Jan 26, 3:10am EST

Thu Jan 26, 2:10am EST

Thu Jan 26, 1:10am EST

Thu Jan 26, 12:10am EST

Wed Jan 25, 11:10pm EST

Wed Jan 25, 10:10pm EST

Wed Jan 25, 9:10pm EST

Wed Jan 25, 8:10pm EST

Wed Jan 25, 7:10pm EST

Wed Jan 25, 6:10pm EST

Wed Jan 25, 5:10pm EST

Wed Jan 25, 4:10pm EST

Wed Jan 25, 3:10pm EST

Wed Jan 25, 2:10pm EST

Wed Jan 25, 1:10pm EST

Wed Jan 25, 12:10pm EST

Wed Jan 25, 11:10am EST

Wed Jan 25, 10:10am EST

Wed Jan 25, 9:10am EST

Wed Jan 25, 8:10am EST

Wed Jan 25, 7:10am EST

Wed Jan 25, 6:10am EST

Wed Jan 25, 5:10am EST

Wed Jan 25, 4:10am EST

Wed Jan 25, 3:10am EST

Wed Jan 25, 2:10am EST

Wed Jan 25, 1:10am EST

Wed Jan 25, 12:10am EST

Tue Jan 24, 11:10pm EST

Tue Jan 24, 10:10pm EST

Tue Jan 24, 9:10pm EST

Tue Jan 24, 8:10pm EST

Tue Jan 24, 7:10pm EST

Tue Jan 24, 6:10pm EST

Tue Jan 24, 5:10pm EST

Tue Jan 24, 4:10pm EST

Tue Jan 24, 3:10pm EST

Tue Jan 24, 2:10pm EST

Tue Jan 24, 1:10pm EST

Tue Jan 24, 12:10pm EST

Tue Jan 24, 11:10am EST

Tue Jan 24, 10:10am EST

Tue Jan 24, 9:10am EST

Tue Jan 24, 8:10am EST

Tue Jan 24, 7:10am EST

Tue Jan 24, 6:10am EST

Tue Jan 24, 5:10am EST

Tue Jan 24, 4:10am EST

Tue Jan 24, 3:10am EST

Tue Jan 24, 2:10am EST

Tue Jan 24, 1:10am EST

Tue Jan 24, 12:10am EST

Mon Jan 23, 11:10pm EST

Mon Jan 23, 10:10pm EST

Mon Jan 23, 9:10pm EST

Mon Jan 23, 8:10pm EST

Mon Jan 23, 7:10pm EST

Mon Jan 23, 6:10pm EST

Mon Jan 23, 5:10pm EST

Mon Jan 23, 4:10pm EST

Mon Jan 23, 3:10pm EST

Mon Jan 23, 1:10pm EST

Mon Jan 23, 12:10pm EST

Mon Jan 23, 11:10am EST

Mon Jan 23, 10:10am EST

Mon Jan 23, 9:10am EST

Mon Jan 23, 8:10am EST

Mon Jan 23, 7:10am EST

Mon Jan 23, 6:10am EST

Mon Jan 23, 5:10am EST

Mon Jan 23, 4:10am EST

Mon Jan 23, 3:10am EST

Mon Jan 23, 2:10am EST

Mon Jan 23, 1:10am EST

Mon Jan 23, 12:10am EST

Sun Jan 22, 11:10pm EST

Sun Jan 22, 10:10pm EST

Sun Jan 22, 9:10pm EST

Sun Jan 22, 8:10pm EST

Sun Jan 22, 7:10pm EST

Sun Jan 22, 6:10pm EST

Sun Jan 22, 5:10pm EST

Sun Jan 22, 4:10pm EST

Sun Jan 22, 3:10pm EST

Sun Jan 22, 2:10pm EST

Sun Jan 22, 1:10pm EST

Sun Jan 22, 12:10pm EST

Sun Jan 22, 11:10am EST

Sun Jan 22, 10:10am EST

Sun Jan 22, 9:10am EST

Sun Jan 22, 8:10am EST

Sun Jan 22, 7:10am EST

Sun Jan 22, 6:10am EST

Sun Jan 22, 5:10am EST

Sun Jan 22, 4:10am EST

Sun Jan 22, 3:10am EST

Sun Jan 22, 2:10am EST

Sun Jan 22, 1:10am EST

Sun Jan 22, 12:10am EST

Sat Jan 21, 11:10pm EST

Sat Jan 21, 10:10pm EST